Weather History for Thermopolis, WY

Change the Weather History Date:

Sunday, February 3, 2013

  Actual Average (KWRL) Record (KWRL)
Temperature  
Mean Temperature 29 °F 20 °F  
Max Temperature 35 °F 33 °F 59 °F (2005)
Min Temperature 23 °F 6 °F -36 °F (1996)
Degree Days  
Heating Degree Days 36 45  
Month to date heating degree days 137  
Since 1 July heating degree days 4985  
Cooling Degree Days 0 0  
Month to date cooling degree days 0  
Year to date cooling degree days 0  
Moisture  
Dew Point 11 °F    
Average Humidity 48    
Maximum Humidity 80    
Minimum Humidity 26    
Precipitation  
Precipitation 0.00 in 0.01 in 0.15 in (1977)
Month to date precipitation 0.02  
Year to date precipitation 0.25  
Sea Level Pressure  
Sea Level Pressure 30.10 in    
Wind  
Wind Speed 8 mph (South)    
Max Wind Speed 21 mph    
Max Gust Speed 22 mph    
Visibility 10 miles    
Events      
T = Trace of Precipitation, MM = Missing Value Source: NWS Daily Summary

Daily Weather History Graph

Daily Weather History Graph

Search for Another Location

Airport:

Trip Planner

Search our weather history database for the weather conditions in past years. The results will help you decide how hot, cold, wet, or windy it might be!

Date:

Astronomy

Feb. 03, 2013 Rise Set
Actual Time 7:26 AM MST 5:27 PM MST
Civil Twilight 6:56 AM MST 5:57 PM MST
Nautical Twilight 6:22 AM MST 6:32 PM MST
Astronomical Twilight 5:48 AM MST 7:05 PM MST
Moon 12:58 AM MST (2/3) 11:05 AM MST (2/3)
Length of Visible Light 11h 01m
Length of Day
10h 01m
Waning Gibbous, 48% of the Moon is Illuminated
Feb 3
Waning Gibbous
Feb 10
New
Feb 17
First Quarter
Feb 25
Full
Mar 4
Last Quarter

Hourly Weather History & Observations

Time (MST) Temp. Windchill Dew Point Humidity Pressure Visibility Wind Dir Wind Speed Gust Speed Precip Events Conditions
12:15 AM 28.4 °F 20.4 °F 15.8 °F 59% 30.28 in 10.0 mi NNW 8.1 mph - N/A   Clear
12:35 AM 30.2 °F - 15.8 °F 55% 30.27 in 10.0 mi Calm Calm - N/A   Clear
12:55 AM 30.2 °F - 15.8 °F 55% 30.26 in 10.0 mi Calm Calm - N/A   Clear
1:15 AM 30.2 °F - 15.8 °F 55% 30.26 in 10.0 mi Calm Calm - N/A   Clear
1:35 AM 32.0 °F - 14.0 °F 48% 30.25 in 10.0 mi Calm Calm - N/A   Clear
1:55 AM 32.0 °F - 14.0 °F 48% 30.25 in 10.0 mi Calm Calm - N/A   Clear
2:15 AM 32.0 °F - 14.0 °F 48% 30.24 in 10.0 mi Calm Calm - N/A   Clear
2:35 AM 32.0 °F 28.7 °F 14.0 °F 48% 30.23 in 10.0 mi SE 3.5 mph - N/A   Clear
2:55 AM 28.4 °F 23.3 °F 14.0 °F 55% 30.22 in 10.0 mi SSE 4.6 mph - N/A   Clear
3:15 AM 30.2 °F 23.4 °F 14.0 °F 51% 30.21 in 10.0 mi SE 6.9 mph - N/A   Clear
3:35 AM 26.6 °F 18.2 °F 14.0 °F 59% 30.21 in 10.0 mi SE 8.1 mph - N/A   Clear
3:55 AM 26.6 °F 16.2 °F 14.0 °F 59% 30.21 in 10.0 mi SE 11.5 mph - N/A   Clear
4:15 AM 26.6 °F 15.7 °F 14.0 °F 59% 30.20 in 10.0 mi SE 12.7 mph - N/A   Clear
4:35 AM 28.4 °F 18.0 °F 14.0 °F 55% 30.19 in 10.0 mi SE 12.7 mph - N/A   Clear
4:55 AM 28.4 °F 17.5 °F 14.0 °F 55% 30.18 in 10.0 mi SE 13.8 mph - N/A   Clear
5:15 AM 28.4 °F 17.5 °F 14.0 °F 55% 30.18 in 10.0 mi SE 13.8 mph - N/A   Clear
5:35 AM 28.4 °F 17.5 °F 15.8 °F 59% 30.16 in 10.0 mi SE 13.8 mph - N/A   Clear
5:55 AM 28.4 °F 17.5 °F 14.0 °F 55% 30.16 in 10.0 mi SE 13.8 mph - N/A   Clear
6:15 AM 26.6 °F 14.3 °F 14.0 °F 59% 30.15 in 10.0 mi SE 16.1 mph - N/A   Clear
6:35 AM 26.6 °F 14.3 °F 14.0 °F 59% 30.14 in 10.0 mi SE 16.1 mph - N/A   Clear
6:55 AM 26.6 °F 16.8 °F 14.0 °F 59% 30.14 in 10.0 mi SE 10.4 mph - N/A   Clear
7:15 AM 26.6 °F 15.2 °F 14.0 °F 59% 30.13 in 10.0 mi SE 13.8 mph - N/A   Clear
7:35 AM 26.6 °F 15.7 °F 14.0 °F 59% 30.12 in 10.0 mi SE 12.7 mph - N/A   Clear
7:55 AM 24.8 °F 11.9 °F 14.0 °F 64% 30.11 in 10.0 mi SE 16.1 mph - N/A   Clear
8:15 AM 24.8 °F 14.6 °F 15.8 °F 69% 30.11 in 10.0 mi SE 10.4 mph - N/A   Clear
8:35 AM 24.8 °F 12.4 °F 15.8 °F 69% 30.10 in 10.0 mi SSE 15.0 mph 20.7 mph N/A   Clear
8:55 AM 26.6 °F 12.7 °F 14.0 °F 59% 30.10 in 10.0 mi SSE 20.7 mph - N/A   Clear
9:15 AM 26.6 °F 14.3 °F 14.0 °F 59% 30.08 in 10.0 mi SSE 16.1 mph 21.9 mph N/A   Clear
9:35 AM 24.8 °F 11.1 °F 15.8 °F 69% 30.08 in 10.0 mi SE 18.4 mph - N/A   Clear
9:55 AM 24.8 °F 12.4 °F 17.6 °F 74% 30.07 in 10.0 mi SE 15.0 mph - N/A   Clear
10:15 AM 23.0 °F 11.1 °F 15.8 °F 74% 30.06 in 10.0 mi SSE 12.7 mph - N/A   Clear
10:35 AM 23.0 °F 11.1 °F 17.6 °F 80% 30.05 in 10.0 mi SE 12.7 mph - N/A   Clear
10:55 AM 23.0 °F 11.1 °F 15.8 °F 74% 30.04 in 10.0 mi SSE 12.7 mph - N/A   Clear
11:15 AM 23.0 °F 11.7 °F 14.0 °F 68% 30.04 in 10.0 mi SSE 11.5 mph - N/A   Clear
11:35 AM 23.0 °F 12.4 °F 14.0 °F 68% 30.04 in 10.0 mi SSE 10.4 mph - N/A   Clear
12:15 PM 32.0 °F 23.0 °F 12.2 °F 44% 30.04 in 10.0 mi SSW 11.5 mph 18.4 mph N/A   Clear
12:35 PM 32.0 °F 23.0 °F 12.2 °F 44% 30.05 in 10.0 mi WSW 11.5 mph - N/A   Clear
12:55 PM 30.2 °F 21.3 °F 14.0 °F 51% 30.05 in 10.0 mi WNW 10.4 mph - N/A   Clear
1:15 PM 28.4 °F 20.4 °F 14.0 °F 55% 30.04 in 10.0 mi WSW 8.1 mph - N/A   Clear
1:35 PM 30.2 °F 20.8 °F 12.2 °F 47% 30.03 in 10.0 mi West 11.5 mph - N/A   Clear
1:55 PM 32.0 °F 23.0 °F 12.2 °F 44% 30.03 in 10.0 mi WSW 11.5 mph - N/A   Clear
2:15 PM 33.8 °F 25.3 °F 8.6 °F 35% 30.02 in 10.0 mi WNW 11.5 mph - N/A   Clear
2:35 PM 32.0 °F 25.6 °F 10.4 °F 41% 30.02 in 10.0 mi West 6.9 mph - N/A   Clear
2:55 PM 33.8 °F 29.6 °F 6.8 °F 32% 30.02 in 10.0 mi WNW 4.6 mph - N/A   Clear
3:15 PM 33.8 °F 29.6 °F 8.6 °F 35% 30.02 in 10.0 mi WSW 4.6 mph - N/A   Clear
3:35 PM 35.6 °F 29.9 °F 5.0 °F 28% 30.03 in 10.0 mi NW 6.9 mph - N/A   Clear
3:55 PM 35.6 °F 28.6 °F 5.0 °F 28% 30.02 in 10.0 mi NNW 9.2 mph - N/A   Clear
4:15 PM 35.6 °F 28.0 °F 3.2 °F 26% 30.03 in 10.0 mi NW 10.4 mph - N/A   Clear
4:35 PM 35.6 °F 29.2 °F 3.2 °F 26% 30.03 in 10.0 mi NW 8.1 mph - N/A   Clear
4:55 PM 35.6 °F 29.9 °F 3.2 °F 26% 30.02 in 10.0 mi NW 6.9 mph - N/A   Clear
5:15 PM 35.6 °F 30.7 °F 3.2 °F 26% 30.02 in 10.0 mi North 5.8 mph - N/A   Clear
5:35 PM 33.8 °F 29.6 °F 5.0 °F 30% 30.03 in 10.0 mi North 4.6 mph - N/A   Clear
6:15 PM 33.8 °F 27.0 °F 5.0 °F 30% 30.03 in 10.0 mi North 8.1 mph - N/A   Clear
6:35 PM 33.8 °F 26.4 °F 5.0 °F 30% 30.04 in 10.0 mi NNW 9.2 mph - N/A   Clear
7:15 PM 35.6 °F 28.0 °F 6.8 °F 30% 30.03 in 10.0 mi WNW 10.4 mph - N/A   Clear
7:35 PM 33.8 °F 25.3 °F 6.8 °F 32% 30.03 in 10.0 mi NW 11.5 mph - N/A   Clear
7:55 PM 33.8 °F 26.4 °F 5.0 °F 30% 30.03 in 10.0 mi NNW 9.2 mph - N/A   Clear
8:15 PM 33.8 °F 28.6 °F 6.8 °F 32% 30.03 in 10.0 mi NNW 5.8 mph - N/A   Clear
8:35 PM 33.8 °F 27.0 °F 6.8 °F 32% 30.03 in 10.0 mi NNW 8.1 mph - N/A   Clear
8:55 PM 33.8 °F 26.4 °F 6.8 °F 32% 30.04 in 10.0 mi NW 9.2 mph - N/A   Clear
9:15 PM 33.8 °F 25.8 °F 6.8 °F 32% 30.03 in 10.0 mi NW 10.4 mph - N/A   Clear
9:35 PM 33.8 °F 25.8 °F 8.6 °F 35% 30.03 in 10.0 mi NW 10.4 mph - N/A   Clear
10:15 PM 33.8 °F 26.4 °F 6.8 °F 32% 30.03 in 10.0 mi NNW 9.2 mph - N/A   Clear
10:35 PM 33.8 °F 30.8 °F 6.8 °F 32% 30.03 in 10.0 mi ENE 3.5 mph - N/A   Clear
10:55 PM 32.0 °F 28.7 °F 8.6 °F 38% 30.03 in 10.0 mi ESE 3.5 mph - N/A   Clear
11:15 PM 32.0 °F 26.4 °F 8.6 °F 38% 30.03 in 10.0 mi SE 5.8 mph - N/A   Clear
11:35 PM 32.0 °F 24.8 °F 8.6 °F 38% 30.02 in 10.0 mi SE 8.1 mph - N/A   Clear
11:55 PM 32.0 °F 25.6 °F 8.6 °F 38% 30.02 in 10.0 mi SSE 6.9 mph - N/A   Clear